Wind_Speed
5 5 5 5 5 5 5 6 6 6 7 7 7 6 6 6 7 7 7 7 8 9 9 9 9 9 9 10 10 10 11 11 11 11 12 12 11 11 11 11 11 11 11
6 5 5 5 6 6 6 6 7 7 8 8 8 7 7 8 8 7 7 8 9 9 9 9 9 9 10 10 11 11 12 12 12 11 11 11 11 11 11 12 13 12 12
7 7 7 7 8 7 7 7 8 8 9 9 9 9 9 10 9 9 9 10 10 10 10 10 10 10 10 11 11 11 11 11 11 11 12 11 11 11 12 12 12 13 13
8 9 9 8 9 9 9 9 9 10 10 11 11 10 10 10 10 10 11 11 11 11 11 11 11 11 11 11 12 11 12 12 12 12 12 13 13 13 13 13 13 14 14
9 10 10 9 10 11 11 12 12 11 11 11 11 11 10 11 11 11 12 12 13 13 12 12 12 12 12 12 12 12 12 12 13 13 13 14 14 14 14 15 15 15 15
11 11 11 11 12 12 13 13 13 12 11 11 12 12 12 12 13 12 13 13 13 14 14 13 13 13 13 12 13 13 13 14 14 14 14 14 14 14 15 15 16 16 17
12 12 12 13 13 13 13 13 13 12 12 12 12 13 13 13 13 13 13 13 13 14 14 14 13 13 13 13 14 15 15 15 15 15 15 15 15 16 16 16 17 17 17
13 13 13 13 14 13 13 14 13 13 13 13 13 13 13 13 13 13 13 13 13 13 13 13 13 13 14 14 14 15 16 16 17 17 16 16 16 16 16 17 18 18 19
14 14 14 14 14 14 14 13 13 14 14 14 14 14 14 13 13 13 13 13 13 13 13 14 13 14 15 15 16 16 16 17 17 18 17 17 18 18 19 19 20 19 20
14 15 14 15 16 15 14 14 14 14 14 14 14 15 15 15 14 14 14 14 14 15 14 14 14 15 15 16 17 17 18 18 18 18 18 19 19 20 21 21 20 20 20
14 14 15 15 16 15 15 15 15 15 15 15 15 16 16 16 16 17 16 16 16 16 15 16 16 17 17 17 18 18 18 19 19 19 20 20 20 20 20 21 21 22 22
15 14 15 15 15 16 16 16 16 17 17 16 17 17 18 17 17 17 18 18 18 18 18 19 19 19 19 19 20 20 20 20 20 21 21 21 22 22 22 22 22 23 22
16 16 16 16 16 16 17 17 17 18 18 18 18 18 18 19 19 19 19 19 20 20 21 21 21 21 21 21 22 22 22 22 22 22 22 22 22 23 23 23 23 23 23
18 17 17 17 17 17 18 18 18 18 19 19 19 19 20 20 20 20 20 20 21 22 22 22 22 23 23 23 23 23 23 23 23 23 24 24 24 25 24 24 23 23 23
19 19 19 19 19 19 19 19 19 19 20 20 20 21 21 21 21 21 22 22 22 22 23 23 24 23 24 24 24 24 25 24 24 24 25 25 26 26 25 25 24 24 24
20 20 20 20 21 21 20 20 20 20 20 21 21 21 21 22 22 22 22 23 24 24 24 25 25 24 24 24 25 25 25 25 25 25 25 26 26 26 26 26 26 26 25
21 20 20 21 21 22 21 21 21 21 21 21 21 21 21 22 23 23 23 24 24 25 25 25 25 25 25 25 25 26 26 26 27 27 27 27 27 27 27 27 27 26 26
21 22 22 22 22 22 22 22 22 22 22 22 22 22 22 22 23 23 24 24 25 25 26 25 24 25 25 25 25 26 27 28 28 28 27 27 28 28 28 28 27 27 27
22 22 23 22 23 23 23 23 23 23 23 23 23 23 23 23 23 23 24 25 26 27 27 26 26 26 26 26 27 27 27 28 28 28 28 29 29 29 29 29 28 28 28
23 23 23 23 23 23 23 24 24 23 23 24 24 24 24 24 24 24 25 26 28 28 27 27 27 27 27 27 28 29 29 29 30 30 30 30 29 29 29 29 28 28 28
24 24 25 25 24 24 24 25 25 25 25 25 25 26 25 25 26 27 26 27 28 28 28 28 28 28 28 28 29 30 30 30 30 30 30 30 30 30 30 30 29 29 30
24 25 25 25 26 26 26 26 26 26 26 27 27 27 27 28 28 28 29 29 29 29 29 30 30 29 29 30 30 30 30 30 30 30 30 30 30 30 30 29 30 30 30
26 26 26 27 27 27 27 27 27 28 28 28 28 29 30 30 29 30 30 30 29 30 30 31 31 30 30 30 30 30 30 30 30 29 29 30 30 30 29 29 29 29 29
28 28 28 28 29 28 28 29 29 29 29 29 29 30 31 32 31 30 30 30 30 31 31 31 30 30 30 30 29 29 29 29 29 29 29 30 30 30 30 29 29 30 30
28 28 28 29 29 29 30 30 30 30 30 30 30 31 31 31 31 31 31 32 32 32 32 31 31 30 29 29 29 30 29 30 30 29 29 29 30 30 30 30 31 30 30
28 28 28 29 29 30 31 31 30 31 31 31 30 31 31 31 31 32 32 32 32 32 31 31 31 30 30 30 30 30 30 30 29 29 29 29 29 30 31 31 31 32 32
Wind_Direction
307 300 297 302 304 306 312 318 318 319 316 319 319 304 300 299 302 300 294 292 292 290 290 291 290 288 282 280 277 276 277 277 277 276 273 271 271 274 270 266 265 264 266
300 299 299 298 298 300 302 306 308 309 309 311 313 304 296 293 293 293 293 295 295 292 290 291 290 290 286 281 281 280 278 278 278 278 278 275 272 274 275 271 268 266 265
292 295 301 299 300 297 296 298 299 300 303 307 306 302 298 295 293 287 286 290 294 293 287 285 284 286 286 283 283 282 279 283 282 281 282 279 276 273 274 273 272 266 264
289 291 292 293 296 297 295 296 298 301 301 302 304 300 298 298 295 288 287 289 293 292 284 285 284 284 285 285 285 284 283 283 282 282 283 282 281 275 273 271 270 268 264
286 289 289 291 295 297 297 298 298 299 299 301 302 302 297 297 299 297 294 292 292 290 284 283 284 284 285 284 284 284 284 285 284 283 284 286 282 274 272 271 269 267 264
283 287 288 289 292 296 297 298 296 297 296 296 297 299 297 296 295 295 294 295 294 291 286 280 281 282 282 281 282 283 284 286 286 287 288 288 285 279 275 271 270 268 266
282 286 287 288 291 294 296 298 299 295 294 293 293 297 299 298 293 294 295 295 296 294 288 281 278 280 280 279 280 281 282 284 284 286 288 289 287 281 277 276 273 270 267
285 287 289 288 289 293 295 297 297 296 295 292 292 295 297 299 296 295 296 297 297 296 296 290 284 281 279 278 279 282 282 284 283 284 285 287 287 283 280 279 278 274 270
284 286 288 290 289 290 292 294 293 295 296 294 291 291 295 298 299 296 295 295 296 296 294 290 290 291 285 280 278 281 282 286 285 284 285 286 286 283 284 282 279 277 273
284 284 286 290 291 290 289 291 293 294 294 293 292 290 292 292 295 296 296 296 295 294 294 290 288 293 292 289 285 284 283 284 284 284 284 284 284 282 283 283 281 278 277
284 285 286 288 288 287 287 287 288 288 288 288 288 288 289 292 291 290 293 295 295 295 294 293 291 291 290 289 288 288 289 288 285 283 284 284 284 283 282 282 281 280 277
281 285 286 286 286 286 286 286 285 286 286 286 286 286 287 290 294 292 291 292 292 292 291 290 290 289 288 289 287 284 284 286 286 285 285 285 285 283 283 284 281 279 277
278 282 284 286 285 284 283 283 284 285 285 285 286 286 287 289 293 294 293 292 290 288 288 288 287 287 286 286 286 283 283 283 283 283 284 285 286 286 285 286 282 280 280
276 279 282 285 285 282 281 282 283 285 285 285 286 287 286 288 291 291 291 290 290 288 287 288 287 287 286 285 285 283 283 284 284 284 284 283 284 286 284 284 283 281 280
279 279 281 283 283 283 280 282 283 283 286 286 285 286 287 288 289 290 290 291 290 289 288 288 288 287 286 285 283 283 284 284 284 284 284 283 284 285 284 284 282 281 280
279 279 281 283 283 283 281 281 281 282 286 287 287 286 287 288 289 290 290 290 289 289 290 289 287 286 286 285 284 283 283 284 284 283 283 282 283 285 284 284 282 280 278
277 278 281 282 281 281 280 280 280 281 283 285 286 286 286 287 289 289 290 290 290 289 290 291 289 287 286 285 284 283 282 282 283 283 282 281 282 284 284 284 281 280 277
277 280 281 278 278 279 279 280 281 282 283 283 284 285 286 287 288 289 289 290 291 291 290 291 290 288 287 287 286 283 283 283 282 282 282 282 282 283 284 282 280 278 277
273 276 278 278 279 279 278 278 280 282 283 284 284 285 287 289 290 290 290 291 292 293 292 292 291 289 288 288 287 286 286 285 284 284 282 282 281 281 281 281 279 276 276
271 272 274 276 278 279 278 279 280 281 284 286 285 285 287 289 291 292 292 292 293 293 293 293 293 292 290 290 290 290 288 288 286 285 284 283 282 280 280 280 280 277 275
273 272 272 274 277 278 280 281 280 281 284 286 286 286 287 289 291 292 293 293 293 294 294 293 293 292 291 291 292 291 289 288 288 286 284 283 282 281 280 279 279 278 276
272 272 271 273 276 277 278 280 280 281 282 283 284 287 287 289 290 291 293 293 294 294 295 294 294 292 291 291 291 291 291 290 288 287 285 284 283 282 281 280 278 278 278
271 271 270 271 274 276 278 279 280 282 284 284 285 285 287 288 289 289 291 291 293 294 295 295 294 294 293 292 291 290 291 290 289 288 286 285 284 283 282 281 280 279 279
270 270 271 271 273 274 276 279 281 282 283 285 287 287 287 287 288 290 290 291 292 293 294 295 295 294 293 292 292 291 291 291 290 288 287 285 284 282 282 281 280 280 279
270 270 271 273 272 273 276 280 280 281 283 285 287 288 288 288 287 288 288 289 291 292 291 292 294 295 293 292 292 292 291 292 291 289 287 285 283 282 282 281 280 279 278
270 269 270 271 272 273 276 278 280 281 282 283 285 287 287 286 287 288 287 288 290 291 291 292 293 294 295 293 292 292 291 291 292 290 288 287 286 284 283 282 281 280 279
Height
5898 5896 5895 5894 5893 5892 5891 5890 5889 5887 5886 5885 5883 5882 5881 5880 5879 5878 5877 5876 5875 5874 5873 5872 5871 5870 5870 5869 5869 5868 5868 5868 5867 5866 5866 5865 5864 5864 5863 5863 5863 5863 5863
5897 5896 5894 5893 5892 5891 5890 5889 5887 5886 5885 5883 5882 5881 5879 5878 5877 5876 5875 5874 5873 5872 5870 5870 5869 5868 5867 5867 5866 5866 5865 5865 5864 5864 5863 5863 5863 5861 5861 5860 5860 5860 5860
5896 5895 5893 5892 5891 5890 5889 5887 5886 5885 5883 5882 5880 5879 5878 5876 5875 5874 5873 5872 5870 5869 5868 5867 5866 5866 5865 5864 5864 5863 5863 5862 5862 5861 5861 5860 5860 5859 5858 5857 5857 5856 5856
5894 5893 5892 5890 5889 5888 5887 5885 5884 5883 5881 5880 5878 5877 5875 5874 5872 5871 5870 5869 5868 5867 5866 5865 5864 5863 5862 5861 5861 5860 5860 5860 5859 5858 5858 5857 5856 5856 5855 5854 5853 5853 5853
5892 5891 5890 5889 5888 5886 5885 5883 5882 5880 5879 5877 5876 5874 5873 5872 5870 5868 5867 5866 5865 5864 5863 5862 5861 5860 5860 5859 5858 5857 5857 5856 5856 5855 5854 5854 5852 5852 5851 5851 5851 5850 5850
5890 5889 5888 5886 5885 5884 5882 5880 5879 5878 5876 5875 5873 5872 5871 5869 5868 5866 5864 5863 5862 5861 5859 5859 5858 5857 5857 5856 5855 5854 5854 5853 5852 5852 5851 5850 5849 5848 5847 5847 5846 5846 5846
5887 5887 5885 5884 5882 5881 5879 5878 5876 5875 5874 5872 5871 5870 5868 5866 5864 5863 5862 5860 5859 5858 5856 5855 5855 5854 5853 5852 5851 5851 5850 5849 5849 5848 5847 5846 5845 5844 5843 5843 5842 5842 5841
5884 5884 5882 5881 5879 5878 5876 5875 5873 5872 5871 5869 5868 5867 5865 5863 5862 5861 5859 5857 5856 5854 5853 5852 5851 5850 5850 5849 5848 5847 5846 5845 5844 5844 5843 5842 5841 5840 5839 5838 5838 5837 5837
5881 5880 5879 5877 5876 5874 5873 5871 5870 5869 5867 5866 5865 5863 5862 5861 5859 5857 5856 5854 5853 5851 5849 5848 5848 5846 5846 5845 5844 5843 5842 5841 5840 5839 5838 5837 5836 5835 5835 5834 5833 5832 5831
5877 5876 5875 5874 5872 5871 5869 5868 5867 5866 5864 5863 5861 5860 5859 5857 5856 5854 5853 5851 5849 5848 5846 5845 5844 5843 5842 5841 5840 5839 5838 5837 5836 5835 5834 5833 5832 5831 5830 5828 5827 5826 5826
5873 5872 5871 5870 5868 5867 5866 5865 5863 5862 5861 5859 5858 5857 5855 5853 5852 5851 5849 5847 5846 5844 5843 5841 5840 5839 5838 5837 5836 5835 5833 5832 5831 5830 5829 5828 5827 5825 5824 5823 5822 5821 5820
5869 5868 5867 5865 5864 5863 5862 5860 5859 5858 5857 5855 5854 5853 5851 5849 5848 5846 5845 5843 5842 5841 5839 5838 5836 5835 5833 5832 5831 5830 5829 5828 5827 5825 5824 5823 5821 5820 5819 5817 5816 5814 5813
5864 5863 5862 5861 5860 5858 5857 5856 5855 5853 5852 5851 5849 5848 5846 5845 5843 5842 5840 5839 5837 5836 5835 5833 5832 5830 5829 5827 5826 5825 5823 5822 5821 5820 5819 5817 5816 5814 5812 5811 5809 5808 5807
5859 5858 5857 5856 5855 5853 5852 5851 5850 5849 5847 5846 5844 5843 5841 5840 5838 5837 5835 5834 5832 5831 5829 5828 5826 5825 5823 5822 5820 5819 5818 5816 5815 5814 5812 5811 5810 5808 5806 5804 5803 5801 5800
5853 5853 5852 5851 5849 5848 5847 5846 5845 5844 5842 5841 5839 5837 5836 5834 5833 5831 5830 5828 5826 5825 5823 5821 5820 5819 5817 5816 5814 5813 5811 5810 5809 5807 5806 5805 5803 5801 5799 5798 5796 5795 5793
5847 5846 5846 5845 5844 5842 5841 5840 5840 5838 5837 5835 5833 5832 5830 5829 5827 5825 5824 5822 5820 5819 5817 5815 5814 5812 5811 5809 5808 5806 5805 5804 5802 5801 5799 5798 5796 5795 5793 5791 5790 5788 5787
5840 5840 5839 5838 5837 5836 5835 5835 5834 5833 5831 5829 5828 5826 5825 5823 5821 5819 5818 5816 5814 5813 5811 5808 5807 5805 5804 5803 5801 5799 5798 5797 5795 5794 5792 5791 5789 5787 5786 5784 5782 5781 5780
5834 5833 5832 5831 5831 5830 5829 5829 5827 5826 5825 5823 5822 5821 5819 5817 5815 5813 5812 5810 5808 5806 5804 5802 5800 5798 5797 5796 5794 5792 5791 5789 5788 5786 5785 5783 5781 5780 5778 5776 5775 5773 5773
5827 5827 5826 5825 5824 5824 5823 5822 5821 5820 5818 5817 5815 5814 5813 5811 5809 5807 5805 5803 5802 5800 5797 5795 5793 5791 5790 5788 5787 5785 5783 5781 5780 5778 5777 5775 5773 5772 5770 5768 5767 5766 5765
5820 5820 5819 5819 5818 5817 5816 5815 5814 5813 5812 5810 5809 5807 5806 5804 5802 5800 5798 5797 5795 5793 5790 5788 5786 5784 5782 5781 5779 5777 5775 5773 5771 5770 5768 5766 5764 5763 5761 5760 5759 5757 5756
5813 5812 5812 5812 5811 5810 5809 5808 5807 5806 5805 5804 5802 5801 5799 5797 5795 5794 5792 5790 5788 5785 5783 5781 5779 5777 5774 5772 5770 5768 5766 5764 5762 5760 5758 5757 5756 5754 5753 5751 5750 5749 5747
5805 5805 5804 5804 5803 5803 5802 5801 5800 5799 5798 5797 5795 5793 5791 5790 5788 5786 5784 5782 5780 5778 5775 5773 5771 5768 5766 5764 5762 5760 5757 5755 5753 5751 5749 5748 5747 5745 5743 5742 5741 5740 5738
5798 5797 5797 5796 5796 5795 5795 5794 5793 5792 5790 5789 5787 5786 5784 5781 5779 5778 5776 5774 5772 5770 5767 5765 5762 5760 5757 5755 5753 5751 5749 5747 5745 5743 5741 5739 5737 5736 5734 5733 5732 5730 5729
5790 5789 5789 5789 5788 5787 5787 5786 5785 5784 5782 5781 5779 5777 5776 5774 5772 5770 5768 5766 5764 5761 5759 5756 5753 5751 5749 5746 5744 5742 5740 5738 5735 5734 5732 5730 5728 5727 5725 5724 5722 5721 5720
5782 5781 5781 5781 5780 5779 5779 5778 5777 5775 5774 5772 5770 5769 5767 5765 5763 5761 5759 5757 5755 5753 5750 5748 5746 5743 5741 5738 5735 5732 5730 5728 5726 5724 5722 5720 5718 5717 5715 5714 5713 5711 5710
5773 5773 5773 5772 5772 5771 5770 5769 5768 5766 5765 5763 5761 5760 5758 5756 5754 5752 5750 5748 5746 5744 5742 5739 5737 5734 5732 5729 5727 5724 5722 5719 5717 5714 5713 5711 5709 5707 5705 5704 5702 5701 5700